Location: Arrien
(43.3167°N, 0.1500°W)
Time: 05:03:08
(UTC+00:00)

Cosmos 2123 Rocket - Pass Details

Date: 15 October 2021
Orbit: 961 x 992 km, 82.9° (Epoch: 02 December)

Event Time Altitude Azimuth Distance (km) Brightness Sun altitude
Rises 19:18:24 0° 350° (N) 3,718 7.3 -22.7°
Reaches altitude 10° 19:20:56 10° 350° (N) 2,765 6.6 -23.2°
Maximum altitude 19:27:17 79° 265° (W) 1,015 4.1 -24.3°
Drops below altitude 10° 19:33:33 10° 180° (S) 2,737 6.2 -25.4°
Sets 19:36:03 0° 179° (S) 3,678 6.9 -25.9°
